Weather History for KPBI - January, 2015

Change the Weather History Date:

Monday, January 26, 2015

  Actual Average Record
Temperature  
Mean Temperature 63 °F 66 °F  
Max Temperature 74 °F 75 °F 86 °F (1965)
Min Temperature 51 °F 57 °F 26 °F (1905)
Degree Days  
Heating Degree Days 2 3  
Month to date heating degree days 12 78  
Since 1 July heating degree days 54 149  
Cooling Degree Days 0 4  
Month to date cooling degree days 164 86  
Year to date cooling degree days 164 86  
Growing Degree Days 12 (Base 50)    
Moisture  
Dew Point 52 °F    
Average Humidity 64    
Maximum Humidity 93    
Minimum Humidity 35    
Precipitation  
Precipitation 0.05 in 0.10 in 1.79 in (1967)
Month to date precipitation 1.05 2.67  
Year to date precipitation 1.05 2.67  
Snow  
Snow 0.00 in - - ()
Month to date snowfall 0.0  
Since 1 July snowfall 0.0  
Snow Depth 0.00 in    
Sea Level Pressure  
Sea Level Pressure 29.91 in    
Wind  
Wind Speed 13 mph (WSW)    
Max Wind Speed 29 mph    
Max Gust Speed 41 mph    
Visibility 9 miles    
Events Rain    
T = Trace of Precipitation, MM = Missing Value Source: NWS Daily Summary

Daily Weather History Graph

Daily Weather History Graph

Search for Another Location

Airport or City:

Trip Planner

Search our weather history database for the weather conditions in past years. The results will help you decide how hot, cold, wet, or windy it might be!

Date:

Astronomy

Jan. 26, 2015 Rise Set
Actual Time 7:08 AM EST 5:58 PM EST
Civil Twilight 6:43 AM EST 6:22 PM EST
Nautical Twilight 6:15 AM EST 6:50 PM EST
Astronomical Twilight 5:47 AM EST 7:18 PM EST
Moon 11:31 AM EST (1/26) No Moon Set
Length of Visible Light 11h 38m
Length of Day
10h 49m
Waxing Crescent, 45% of the Moon is Illuminated
Jan 26
Waxing Crescent
Jan 26
First Quarter
Feb 3
Full
Feb 11
Last Quarter
Feb 18
New

Hourly Weather History & Observations

Time (EST) Temp. Dew Point Humidity Pressure Visibility Wind Dir Wind Speed Gust Speed Precip Events Conditions
12:53 AM 52.0 °F 44.1 °F 74% 29.97 in 10.0 mi SSW 5.8 mph - N/A   Partly Cloudy
1:53 AM 53.1 °F 46.9 °F 80% 29.95 in 10.0 mi SSW 5.8 mph - N/A   Partly Cloudy
2:53 AM 52.0 °F 48.0 °F 86% 29.95 in 10.0 mi SW 4.6 mph - N/A   Partly Cloudy
3:53 AM 52.0 °F 48.9 °F 89% 29.94 in 10.0 mi SSW 3.5 mph - N/A   Scattered Clouds
4:53 AM 53.1 °F 50.0 °F 89% 29.93 in 10.0 mi SSW 4.6 mph - N/A   Mostly Cloudy
5:53 AM 54.0 °F 51.1 °F 90% 29.91 in 10.0 mi South 5.8 mph - N/A   Scattered Clouds
6:53 AM 57.0 °F 53.1 °F 87% 29.91 in 10.0 mi South 9.2 mph - N/A   Mostly Cloudy
7:53 AM 59.0 °F 54.0 °F 83% 29.91 in 10.0 mi SSW 9.2 mph - N/A   Mostly Cloudy
8:53 AM 63.0 °F 55.9 °F 78% 29.91 in 10.0 mi SW 11.5 mph - N/A   Mostly Cloudy
9:51 AM 64.4 °F 57.2 °F 77% 29.94 in 1.0 mi WNW 19.6 mph 27.6 mph 0.00 in Rain Heavy Rain
9:53 AM 63.0 °F 57.9 °F 84% 29.94 in 1.0 mi WNW 19.6 mph 27.6 mph 0.02 in Rain Heavy Rain
10:00 AM 62.1 °F 57.9 °F 86% 29.94 in 3.0 mi WNW 16.1 mph 27.6 mph 0.02 in Rain Heavy Rain
10:07 AM 62.1 °F 59.0 °F 90% 29.95 in 6.0 mi West 13.8 mph - 0.03 in Rain Light Rain
10:42 AM 63.0 °F 59.0 °F 87% 29.94 in 10.0 mi WSW 9.2 mph - 0.03 in Rain Light Rain
10:53 AM 63.0 °F 59.0 °F 87% 29.93 in 10.0 mi West 12.7 mph - 0.03 in   Mostly Cloudy
11:53 AM 68.0 °F 59.0 °F 73% 29.91 in 10.0 mi West 15.0 mph - N/A   Mostly Cloudy
12:53 PM 71.1 °F 57.0 °F 61% 29.86 in 10.0 mi West 17.3 mph 24.2 mph N/A   Mostly Cloudy
1:53 PM 71.1 °F 53.1 °F 53% 29.82 in 10.0 mi West 18.4 mph - N/A   Scattered Clouds
2:53 PM 73.0 °F 46.9 °F 39% 29.82 in 10.0 mi West 24.2 mph 36.8 mph N/A   Scattered Clouds
3:53 PM 73.0 °F 45.0 °F 37% 29.83 in 10.0 mi West 25.3 mph 35.7 mph N/A   Scattered Clouds
4:53 PM 70.0 °F 45.0 °F 41% 29.85 in 10.0 mi West 23.0 mph 31.1 mph N/A   Scattered Clouds
5:53 PM 66.9 °F 46.0 °F 47% 29.87 in 10.0 mi West 20.7 mph 31.1 mph N/A   Partly Cloudy
6:53 PM 64.0 °F 48.0 °F 56% 29.89 in 10.0 mi West 11.5 mph - N/A   Partly Cloudy
7:53 PM 62.1 °F 50.0 °F 65% 29.91 in 10.0 mi West 11.5 mph - N/A   Partly Cloudy
8:53 PM 60.1 °F 50.0 °F 69% 29.93 in 10.0 mi WNW 12.7 mph - N/A   Clear
9:53 PM 57.9 °F 50.0 °F 75% 29.94 in 10.0 mi West 11.5 mph - N/A   Clear
10:53 PM 57.0 °F 50.0 °F 77% 29.95 in 10.0 mi West 9.2 mph - N/A   Clear
11:53 PM 57.0 °F 48.9 °F 74% 29.97 in 10.0 mi West 10.4 mph - N/A   Partly Cloudy